Flag for Qatar Weather past 2 weeks in Al Khor, Qatar

Now
88 °F

Clear.


Feels Like: 108 °F
Forecast: 85 / 106 °F
Wind: 2 mph from North

Location: Doha International Airport

Current Time: Sep 3, 2014 at 3:44:45 AM

Latest Report: Sep 3, 2014 at 3:00 AM


Visibility: 10 mi

Pressure: 29.56 "Hg

Humidity: 84%

Dew point: 82 °F

Location of Al KhorLocation

Historic Weather in Al Khor — Graph

°F

Al Khor temperature yesterday

Maximum temperature yesterday: 106 °F (at 12:00 PM)
Minimum temperature yesterday: 90 °F (at 5:00 AM)
Average temperature yesterday: 97 °F

Past Weeks' High & Low Weather Summary

 TemperatureHumidityPressure
High109 °F (Aug 21, 11:00 AM)100% (Sep 3, 2:30 AM)29.77 "Hg (Sep 3, 2:30 AM)
Low70 °F (Sep 3, 2:30 AM)15% (Sep 2, 12:30 PM)29.47 "Hg (Sep 1, 4:00 PM)
Average96 °F60%29.60 "Hg
* Reported Aug 19 2:00 AM — Sep 3 2:30 AM, Al Khor, Weather by CustomWeather, © 2014

Note: Actual official high and low records may vary slightly from our data, if they occured in-between our weather recording intervals... More about our weather records

Advertising

Al Khor weather history for previous 24 hours

 ConditionsComfort  
Time TempWeatherWind HumidityBarometerVisibility
2:30 AM
Sep 3
70 °FClear.No wind100%29.56 "Hg10 mi
2:00 AM88 °FClear.3 mph79%29.56 "Hg10 mi
1:00 AM90 °FClear.2 mph79%29.56 "Hg10 mi
12:00 AM90 °FPassing clouds.3 mph79%29.56 "HgN/A
11:00 PM
Sep 2
90 °FClear.2 mph75%29.59 "Hg10 mi
10:30 PM91 °FClear.3 mph75%29.59 "Hg10 mi
10:00 PM91 °FPassing clouds.3 mph71%29.59 "HgN/A
9:30 PM91 °FClear.5 mph71%29.59 "Hg10 mi
9:00 PM91 °FClear.5 mph71%29.59 "Hg10 mi
8:00 PM93 °FPassing clouds.6 mph67%29.56 "HgN/A
7:00 PM93 °FClear.7 mph63%29.56 "Hg10 mi
6:00 PM95 °FClear.9 mph60%29.53 "Hg6 mi
5:00 PM97 °FSunny.12 mph53%29.53 "Hg10 mi
4:00 PM99 °FPassing clouds.12 mph47%29.53 "HgN/A
3:00 PM102 °FPassing clouds.12 mph35%29.53 "HgN/A
2:00 PM104 °FSunny.13 mph23%29.53 "Hg10 mi
1:30 PM106 °FPassing clouds.12 mph19%29.53 "HgN/A
1:00 PM106 °FPassing clouds.12 mph17%29.53 "HgN/A
12:30 PM106 °FClear.12 mph15%29.53 "Hg5 mi
12:00 PM106 °FClear.12 mph22%29.53 "Hg5 mi
11:30 AM104 °FClear.9 mph33%29.56 "Hg5 mi
11:00 AM102 °FClear.8 mph35%29.56 "Hg5 mi
10:30 AM102 °FClear.7 mph37%29.56 "Hg5 mi
10:00 AM100 °FClear.8 mph47%29.56 "Hg5 mi
9:30 AM102 °FClear.2 mph42%29.56 "Hg5 mi
9:00 AM99 °FClear.2 mph44%29.56 "Hg6 mi
8:30 AM97 °FPassing clouds.3 mph56%29.56 "HgN/A
8:00 AM95 °FPassing clouds.7 mph60%29.56 "HgN/A
7:30 AM93 °FPassing clouds.5 mph67%29.56 "HgN/A
7:00 AM93 °FPassing clouds.3 mph67%29.56 "HgN/A
6:00 AM91 °FClear.2 mph71%29.53 "Hg6 mi
5:00 AM90 °FClear.2 mph79%29.53 "Hg10 mi
4:00 AM91 °FClear.3 mph75%29.50 "Hg10 mi
3:00 AM91 °FPassing clouds.3 mph75%29.50 "HgN/A
Weather by CustomWeather, © 2014

See weather overviewHow to use our weather pages